TimeMST,TemperatureF,Dew PointF,Humidity,Sea Level PressureIn,VisibilityMPH,Wind Direction,Wind SpeedMPH,Gust SpeedMPH,PrecipitationIn,Events,Conditions,WindDirDegrees,DateUTC
12:53 AM,46.0,28.0,50,29.91,10.0,Calm,Calm,-,N/A,,Clear,0,2012-12-30 07:53:00
1:53 AM,46.0,30.0,54,29.91,10.0,Calm,Calm,-,N/A,,Clear,0,2012-12-30 08:53:00
2:53 AM,46.0,30.9,56,29.92,10.0,Calm,Calm,-,N/A,,Clear,0,2012-12-30 09:53:00
3:53 AM,45.0,30.0,56,29.90,10.0,Calm,Calm,-,N/A,,Clear,0,2012-12-30 10:53:00
4:53 AM,45.0,28.0,52,29.88,10.0,Calm,Calm,-,N/A,,Clear,0,2012-12-30 11:53:00
5:53 AM,44.1,30.0,58,29.88,10.0,Calm,Calm,-,N/A,,Clear,0,2012-12-30 12:53:00
6:53 AM,44.1,30.9,60,29.88,10.0,Calm,Calm,-,N/A,,Clear,0,2012-12-30 13:53:00
7:53 AM,43.0,30.0,60,29.90,10.0,Calm,Calm,-,N/A,,Clear,0,2012-12-30 14:53:00
8:53 AM,44.1,30.0,58,29.91,10.0,Calm,Calm,-,N/A,,Clear,0,2012-12-30 15:53:00
9:53 AM,46.9,30.0,52,29.92,10.0,Calm,Calm,-,N/A,,Clear,0,2012-12-30 16:53:00
10:53 AM,48.0,27.0,44,29.93,10.0,Calm,Calm,-,N/A,,Clear,0,2012-12-30 17:53:00
11:53 AM,50.0,27.0,41,29.90,10.0,WSW,3.5,-,N/A,,Clear,250,2012-12-30 18:53:00
12:53 PM,51.1,27.0,39,29.86,10.0,ENE,3.5,-,N/A,,Clear,70,2012-12-30 19:53:00
1:53 PM,53.1,28.0,38,29.84,10.0,WSW,4.6,-,N/A,,Clear,250,2012-12-30 20:53:00
2:53 PM,52.0,27.0,38,29.83,10.0,Calm,Calm,-,N/A,,Clear,0,2012-12-30 21:53:00
3:53 PM,53.1,25.0,34,29.83,10.0,WSW,5.8,-,N/A,,Overcast,250,2012-12-30 22:53:00
4:53 PM,46.9,36.0,66,29.84,10.0,North,5.8,-,0.01,Rain,Light Rain,10,2012-12-30 23:53:00
5:53 PM,48.0,36.0,63,29.85,10.0,Calm,Calm,-,0.00,Rain,Light Rain,0,2012-12-31 00:53:00
6:53 PM,46.9,37.9,71,29.89,7.0,Calm,Calm,-,0.02,Rain,Light Rain,0,2012-12-31 01:53:00
7:53 PM,46.0,39.0,76,29.90,10.0,SE,4.6,-,0.00,,Overcast,130,2012-12-31 02:53:00
8:53 PM,45.0,39.0,80,29.91,10.0,SE,6.9,-,N/A,,Overcast,130,2012-12-31 03:53:00
9:53 PM,44.1,37.9,79,29.92,10.0,ESE,3.5,-,N/A,,Overcast,120,2012-12-31 04:53:00
10:53 PM,43.0,37.9,82,29.94,10.0,Calm,Calm,-,N/A,,Mostly Cloudy,0,2012-12-31 05:53:00
11:53 PM,43.0,37.0,80,29.95,10.0,Calm,Calm,-,N/A,,Overcast,0,2012-12-31 06:53:00